Wind_Speed
29 30 32 33 33 35 35 34 35 35 35 35 36 37 38 38 37 38 38 38 36 36 35 38 45 50 50 49 48 46 46 46 46
38 39 40 40 42 43 43 43 43 43 44 44 44 44 45 46 46 46 45 45 43 41 41 41 39 40 44 49 52 51 51 50 49
45 47 47 48 50 51 53 54 54 54 54 53 53 53 54 54 54 53 52 51 51 50 48 45 45 45 44 43 45 47 50 53 52
53 54 55 55 57 58 59 59 61 61 61 62 63 62 61 62 61 59 59 57 57 57 56 53 50 49 50 49 47 45 45 45 47
59 61 62 64 64 64 65 65 65 65 67 66 67 68 67 67 68 67 66 64 64 60 60 61 59 55 54 54 53 53 52 50 49
64 64 67 68 69 68 69 71 73 73 73 72 72 72 72 73 72 72 72 71 70 69 66 64 63 65 64 61 60 59 57 58 56
68 70 71 71 73 76 76 77 76 75 76 76 76 77 76 77 78 78 78 77 76 72 71 69 67 63 63 64 64 66 66 62 61
76 77 76 75 77 76 76 76 77 78 81 83 84 83 81 80 80 80 82 83 81 80 78 77 76 75 72 67 66 67 69 69 67
80 80 79 81 81 79 78 78 76 76 76 77 79 82 85 89 90 89 87 87 88 86 84 82 79 79 77 74 73 73 73 72 70
77 76 76 75 73 72 74 74 74 75 75 76 76 78 80 84 86 89 92 93 93 94 93 92 89 85 82 82 81 80 80 79 76
77 75 74 73 72 71 71 71 72 72 73 74 74 76 76 77 78 82 89 89 92 94 95 94 93 92 92 91 87 83 87 88 85
77 75 72 69 69 68 66 65 64 63 62 62 62 63 64 66 69 71 71 75 83 89 90 92 94 94 94 96 98 95 86 82 88
62 59 58 57 57 55 51 49 48 49 50 51 51 52 54 55 55 56 57 59 64 68 74 79 83 91 95 95 96 98 97 93 83
56 52 46 41 40 39 37 38 41 42 42 44 44 45 47 47 48 50 53 54 56 59 62 65 70 74 77 83 88 94 97 99 96
36 33 33 35 37 39 40 41 42 44 45 46 47 48 49 49 49 49 48 48 51 55 58 59 61 64 67 69 72 77 84 94 98
35 36 38 39 40 42 42 41 41 42 42 44 43 43 45 46 47 49 49 50 51 51 51 54 57 60 62 65 64 67 70 78 87
36 38 39 41 41 41 41 39 38 36 35 36 39 43 45 45 42 43 45 48 51 53 52 52 50 52 56 60 62 63 66 67 73
40 41 38 37 36 34 34 34 34 34 32 33 34 36 41 49 47 44 44 47 49 52 53 52 51 48 49 53 59 61 65 65 67
37 35 34 33 32 33 32 34 36 36 37 38 38 39 40 40 50 50 45 46 49 52 53 53 52 51 48 48 52 54 57 63 67
27 28 29 33 36 37 40 40 39 39 39 42 45 45 44 46 50 54 56 45 50 52 53 53 50 51 50 47 47 48 52 59 64
Wind_Direction
291 292 292 292 292 289 284 279 277 275 274 273 274 275 276 276 274 274 275 272 270 269 265 264 262 262 261 261 260 257 257 256 255
294 294 293 294 293 291 289 287 282 280 277 275 275 274 273 273 272 271 272 272 270 273 273 267 263 263 264 260 260 260 258 258 255
295 294 293 291 290 290 290 290 288 286 284 282 280 278 276 276 274 274 272 271 269 269 269 268 268 267 265 264 262 261 261 259 258
291 290 289 288 286 285 285 283 282 281 281 281 280 279 278 277 276 274 273 272 269 268 268 267 266 265 265 266 265 262 260 260 260
287 285 285 283 282 283 282 282 281 280 279 277 275 275 274 274 275 274 273 272 268 267 266 268 268 265 265 264 262 261 262 262 262
287 285 284 284 283 281 281 282 282 279 278 277 275 274 273 272 271 271 270 270 270 269 268 266 266 266 266 263 261 260 260 260 261
286 285 283 282 282 281 281 280 279 277 276 274 273 272 271 271 271 270 270 268 266 266 267 267 266 265 264 264 261 260 260 259 259
289 287 284 281 282 280 278 277 278 279 278 277 275 272 269 268 268 267 267 266 265 265 263 263 264 264 261 260 260 260 259 258 257
289 285 284 282 282 282 280 281 279 277 276 275 274 273 271 269 266 264 263 262 264 263 262 261 259 259 260 259 259 258 257 257 257
293 291 288 287 285 283 281 280 280 279 278 277 275 272 271 269 267 267 265 261 261 263 264 262 260 257 256 255 254 255 255 255 256
294 292 289 287 286 285 284 284 283 282 280 278 276 274 274 274 272 270 264 264 264 263 264 263 260 258 256 255 253 253 254 254 253
294 292 291 290 288 288 289 290 290 288 285 284 281 279 278 277 275 275 271 269 268 266 262 262 262 260 259 256 253 253 250 251 252
299 296 295 293 292 293 293 294 293 291 290 289 288 286 283 281 278 277 274 272 270 269 268 266 263 261 260 257 254 253 252 249 247
296 296 299 301 302 305 306 305 304 302 300 300 299 296 292 290 288 286 282 278 274 271 269 268 267 265 262 260 257 253 252 252 249
306 312 314 312 313 311 308 306 304 305 303 301 299 297 296 295 294 291 287 284 279 276 274 272 269 268 266 263 260 256 252 249 246
316 315 313 312 309 309 308 307 304 302 303 303 301 300 300 300 299 296 295 292 287 284 281 273 270 268 267 266 262 259 254 250 246
311 308 308 309 307 305 304 304 303 303 307 308 311 309 304 300 300 299 297 292 290 287 285 280 275 270 267 265 263 259 254 249 246
309 308 308 309 310 312 312 311 312 312 312 315 315 320 324 321 312 309 305 302 298 292 290 288 284 280 274 266 261 259 258 251 247
309 309 311 316 322 321 321 320 321 318 318 318 321 321 317 317 324 318 312 309 306 299 292 290 289 285 279 273 265 257 256 254 250
318 323 332 336 335 337 335 328 327 322 321 323 324 322 321 322 321 319 318 311 311 307 297 291 289 286 282 277 270 257 253 250 248
Height
10866 10865 10863 10862 10861 10859 10858 10856 10854 10854 10852 10851 10850 10848 10847 10846 10845 10844 10843 10842 10842 10840 10840 10839 10838 10839 10840 10841 10842 10842 10843 10843 10843
10859 10857 10855 10855 10852 10850 10848 10847 10846 10844 10843 10842 10841 10840 10838 10837 10836 10835 10834 10833 10832 10832 10831 10830 10830 10829 10828 10829 10830 10832 10833 10834 10834
10851 10848 10847 10845 10843 10840 10838 10836 10834 10832 10830 10830 10829 10828 10826 10824 10823 10823 10823 10822 10821 10822 10821 10820 10820 10820 10819 10819 10820 10820 10822 10823 10824
10842 10839 10837 10834 10832 10830 10829 10826 10823 10822 10820 10817 10815 10813 10812 10809 10810 10810 10809 10810 10809 10808 10808 10809 10809 10809 10809 10810 10810 10810 10810 10811 10812
10831 10828 10825 10822 10819 10817 10814 10812 10809 10808 10806 10804 10802 10800 10799 10796 10794 10793 10793 10794 10793 10795 10796 10795 10795 10796 10797 10798 10799 10799 10799 10800 10801
10818 10815 10810 10808 10805 10802 10799 10795 10793 10791 10788 10786 10785 10783 10782 10780 10778 10777 10775 10776 10776 10778 10780 10781 10781 10781 10782 10784 10786 10787 10787 10789 10790
10802 10799 10795 10791 10788 10784 10781 10777 10774 10771 10768 10766 10765 10763 10763 10760 10758 10757 10755 10756 10758 10761 10762 10763 10765 10766 10767 10769 10771 10772 10773 10774 10776
10784 10780 10776 10773 10768 10765 10761 10759 10755 10751 10748 10746 10744 10742 10741 10740 10738 10737 10736 10733 10737 10740 10743 10746 10748 10749 10750 10752 10753 10755 10756 10758 10761
10765 10759 10755 10750 10747 10743 10741 10738 10735 10732 10728 10724 10720 10718 10716 10717 10715 10714 10714 10714 10713 10716 10720 10723 10727 10729 10731 10733 10735 10736 10739 10741 10744
10748 10742 10737 10732 10729 10724 10720 10717 10713 10709 10706 10703 10700 10696 10694 10693 10692 10691 10691 10692 10693 10692 10694 10699 10703 10706 10709 10712 10714 10716 10718 10721 10725
10730 10725 10720 10714 10710 10705 10701 10697 10693 10688 10683 10680 10678 10674 10672 10671 10670 10668 10667 10667 10669 10672 10672 10673 10676 10680 10684 10687 10690 10694 10697 10700 10705
10712 10706 10701 10697 10693 10688 10684 10679 10673 10667 10662 10658 10655 10653 10651 10649 10648 10647 10647 10647 10647 10646 10646 10646 10646 10650 10655 10660 10664 10667 10673 10677 10682
10695 10690 10684 10680 10675 10672 10667 10662 10658 10653 10648 10645 10641 10637 10634 10631 10630 10629 10628 10625 10623 10623 10621 10619 10620 10621 10625 10631 10637 10640 10645 10652 10659
10681 10676 10671 10667 10663 10660 10657 10652 10647 10643 10639 10633 10629 10625 10620 10618 10617 10614 10611 10609 10606 10602 10599 10598 10597 10597 10601 10604 10609 10615 10620 10628 10635
10670 10666 10663 10659 10656 10652 10648 10645 10639 10633 10628 10623 10618 10614 10609 10607 10604 10600 10597 10594 10590 10587 10584 10581 10578 10577 10576 10581 10585 10588 10593 10598 10605
10664 10660 10656 10652 10647 10643 10639 10635 10631 10625 10619 10613 10608 10604 10598 10595 10593 10587 10584 10580 10575 10570 10567 10566 10564 10560 10557 10556 10562 10565 10568 10571 10579
10657 10652 10648 10644 10639 10633 10630 10626 10622 10618 10612 10605 10598 10591 10586 10585 10582 10576 10573 10567 10560 10555 10551 10548 10547 10546 10543 10540 10539 10541 10543 10549 10555
10648 10644 10639 10635 10631 10627 10621 10616 10612 10608 10605 10600 10594 10587 10576 10563 10564 10564 10560 10552 10546 10540 10537 10533 10530 10529 10526 10525 10521 10521 10524 10530 10536
10640 10637 10633 10629 10624 10619 10614 10609 10603 10598 10594 10592 10588 10584 10576 10568 10551 10546 10547 10542 10533 10526 10521 10518 10514 10511 10509 10508 10506 10503 10506 10510 10516
10635 10630 10626 10622 10617 10612 10607 10602 10597 10591 10585 10580 10574 10569 10567 10560 10554 10541 10530 10531 10521 10513 10508 10504 10502 10496 10493 10491 10490 10488 10487 10491 10497